Track COSMOS 2380 (GLONASS) now! COSMOS 2380 (GLONASS) is classified as:
1 26989U 01053C 22227.20826314 -.00000008 00000-0 00000-0 0 9993 2 26989 63.2638 107.5105 0004320 31.8310 172.4166 2.13103116161135